Terminal Aerodrome Forecast
Issued by NWS Green Bay, WI

Home | Current Version | Previous Version | Graphics & Text | Print | Product List | Glossary On
Versions: 1 2 3 4 5 6 7 8 9 10 11 12 13 14 15 16 17 18 19 20 21 22 23 24 25 26 27 28 29 30 31 32 33 34 35 36 37 38
042
FTUS43 KGRB 071006 AAB
TAFGRB
TAF AMD
KGRB 071006Z 0710/0806 17012G16KT P6SM SCT040 BKN080
     FM071400 22011G15KT P6SM BKN060 OVC090
     FM080000 24007KT P6SM SCT025 BKN040=

USA.gov is the U.S. government's official web portal to all federal, state and local government web resources and services.